Weather History for Cleveland, OH

Change the Weather History Date:

Monday, April 7, 2014

  Actual Average Record
Temperature  
Mean Temperature 47 °F 47 °F  
Max Temperature 57 °F 56 °F 83 °F (1929)
Min Temperature 37 °F 38 °F 17 °F (1982)
Degree Days  
Heating Degree Days 18 19  
Month to date heating degree days 127 139  
Since 1 July heating degree days 5817 5182  
Cooling Degree Days 0 0  
Month to date cooling degree days 0 0  
Year to date cooling degree days 0 1  
Moisture  
Dew Point 37 °F    
Average Humidity 70    
Maximum Humidity 92    
Minimum Humidity 47    
Precipitation  
Precipitation 0.61 in 0.13 in 0.68 in (1957)
Month to date precipitation 2.02 0.84  
Year to date precipitation 9.25 8.83  
Snow  
Snow 0.00 in 0.20 in - ()
Month to date snowfall 0.0 1.5  
Since 1 July snowfall 84.8 66.3  
Snow Depth 0.00 in    
Sea Level Pressure  
Sea Level Pressure 29.68 in    
Wind  
Wind Speed 8 mph (ENE)    
Max Wind Speed 21 mph    
Max Gust Speed 26 mph    
Visibility 7 miles    
Events Rain    
T = Trace of Precipitation, MM = Missing Value Source: NWS Daily Summary

Daily Weather History Graph

Daily Weather History Graph

Search for Another Location

Airport:

Trip Planner

Search our weather history database for the weather conditions in past years. The results will help you decide how hot, cold, wet, or windy it might be!

Date:

Astronomy

Apr. 07, 2014 Rise Set
Actual Time 7:00 AM EDT 7:59 PM EDT
Civil Twilight 6:32 AM EDT 8:27 PM EDT
Nautical Twilight 5:58 AM EDT 9:01 PM EDT
Astronomical Twilight 5:23 AM EDT 9:36 PM EDT
Moon 12:53 PM EDT (4/7) 2:37 AM EDT (4/7)
Length of Visible Light 13h 54m
Length of Day
12h 58m
First Quarter, 53% of the Moon is Illuminated
Apr 7
First Quarter
Apr 15
Full
Apr 22
Last Quarter
Apr 29
New
May 6
First Quarter

Hourly Weather History & Observations

Time (EDT) Temp. Windchill Dew Point Humidity Pressure Visibility Wind Dir Wind Speed Gust Speed Precip Events Conditions
12:51 AM 41.0 °F 39.0 °F 28.0 °F 60% 30.02 in 10.0 mi East 3.5 mph - N/A   Mostly Cloudy
1:51 AM 39.0 °F - 28.0 °F 65% 30.01 in 10.0 mi Calm Calm - N/A   Mostly Cloudy
2:51 AM 39.9 °F 35.8 °F 28.0 °F 63% 29.99 in 10.0 mi NE 5.8 mph - N/A   Mostly Cloudy
3:51 AM 39.0 °F 35.7 °F 28.0 °F 65% 29.96 in 10.0 mi NNE 4.6 mph - N/A   Overcast
4:51 AM 39.0 °F - 28.9 °F 67% 29.94 in 10.0 mi Calm Calm - N/A   Overcast
5:51 AM 39.0 °F 35.7 °F 28.9 °F 67% 29.92 in 10.0 mi North 4.6 mph - N/A   Overcast
6:51 AM 39.9 °F 36.7 °F 28.9 °F 65% 29.91 in 10.0 mi East 4.6 mph - N/A   Mostly Cloudy
7:51 AM 43.0 °F 40.3 °F 28.0 °F 56% 29.90 in 10.0 mi East 4.6 mph - N/A   Overcast
8:51 AM 46.9 °F - 30.0 °F 52% 29.88 in 10.0 mi East 5.8 mph - N/A   Overcast
9:51 AM 51.1 °F - 32.0 °F 48% 29.84 in 10.0 mi ESE 6.9 mph - N/A   Overcast
10:51 AM 52.0 °F - 32.0 °F 47% 29.85 in 10.0 mi SE 6.9 mph - N/A   Overcast
11:51 AM 53.1 °F - 36.0 °F 52% 29.81 in 10.0 mi ESE 6.9 mph - 0.00 in   Overcast
12:51 PM 55.9 °F - 36.0 °F 47% 29.78 in 10.0 mi SE 9.2 mph - 0.00 in   Overcast
1:51 PM 57.0 °F - 37.0 °F 47% 29.73 in 10.0 mi East 9.2 mph - N/A   Overcast
2:51 PM 53.1 °F - 39.9 °F 61% 29.69 in 10.0 mi East 12.7 mph - 0.01 in Rain Light Rain
3:51 PM 50.0 °F - 43.0 °F 77% 29.60 in 6.0 mi East 15.0 mph - 0.07 in Rain Light Rain
4:36 PM 48.9 °F - 44.1 °F 83% 29.57 in 10.0 mi ESE 16.1 mph - 0.00 in   Overcast
4:51 PM 48.9 °F - 44.1 °F 83% 29.59 in 5.0 mi ESE 12.7 mph - 0.01 in Rain Rain
5:07 PM 48.9 °F - 44.1 °F 83% 29.58 in 2.5 mi ESE 11.5 mph - 0.05 in Rain Rain
5:15 PM 48.9 °F - 44.1 °F 83% 29.55 in 3.0 mi East 12.7 mph - 0.07 in Rain Rain
5:51 PM 48.9 °F - 44.1 °F 83% 29.55 in 7.0 mi ENE 8.1 mph - 0.12 in Rain Light Rain
6:12 PM 48.0 °F - 44.1 °F 86% 29.51 in 7.0 mi East 15.0 mph - 0.02 in Rain Light Rain
6:42 PM 48.0 °F - 43.0 °F 83% 29.51 in 2.5 mi NE 8.1 mph - 0.06 in Rain Heavy Rain
6:51 PM 48.0 °F - 43.0 °F 83% 29.52 in 2.0 mi ENE 9.2 mph - 0.10 in Rain Heavy Rain
7:00 PM 48.0 °F - 43.0 °F 83% 29.50 in 4.0 mi ENE 6.9 mph - 0.05 in Rain Light Rain
7:51 PM 46.9 °F - 43.0 °F 86% 29.48 in 4.0 mi NNE 9.2 mph - 0.10 in Rain Light Rain
8:29 PM 45.0 °F 38.2 °F 42.1 °F 90% 29.46 in 5.0 mi NE 15.0 mph - 0.03 in Rain Light Rain
8:51 PM 44.1 °F 37.1 °F 41.0 °F 89% 29.45 in 4.0 mi NE 15.0 mph - 0.04 in Rain Light Rain
9:23 PM 43.0 °F 35.7 °F 39.9 °F 89% 29.44 in 2.5 mi NE 15.0 mph - 0.03 in Rain Rain
9:33 PM 43.0 °F 35.4 °F 39.9 °F 89% 29.43 in 5.0 mi NNE 16.1 mph - 0.04 in Rain Light Rain
9:51 PM 43.0 °F 35.7 °F 39.0 °F 86% 29.45 in 9.0 mi North 15.0 mph - 0.05 in Rain Light Rain
9:57 PM 43.0 °F 35.4 °F 39.0 °F 86% 29.45 in 0.8 mi North 16.1 mph - 0.01 in Rain Light Rain
10:51 PM 41.0 °F 33.9 °F 37.9 °F 89% 29.46 in 0.8 mi NNE 12.7 mph - 0.04 in Rain Light Rain
11:51 PM 39.9 °F 31.8 °F 37.0 °F 89% 29.40 in 0.8 mi NNE 15.0 mph - 0.07 in Rain Light Rain